星链-35129(STARLINK-35129)

导读

STARLINK-35129是美国SpaceX星链星座中的卫星,于2025年10月19日发射升空,归属美国太空探索技术公司。星链项目旨在搭建全球卫星互联网,为全球偏远地区、高信号需求领域提供低延迟宽带网络服务。该卫星加入星座后,进一步扩充了星链低轨卫星网络的覆盖范围与服务能力。

基本信息
目录编号:
66077
目录名称:
STARLINK-35129
国际标识:
2025-235V
轨道中心:
EARTH
卫星名称:
星链-35129
卫星全名:
星链-35129(STARLINK-35129)
卫星状态:
在轨 (已飞行237 天)
发射日期:
2025-10-19 UTC
国别 :
美国 (US)
星等 :
--
轨道信息
数据来源 国际轨道数据 AOE轨道数据
星历时间 2026-06-13T14:28:46+0800
6小时前
查看轨道信息
2026-06-08T01:00:00+0800
5天前
查看轨道信息
半长轴 6853.348km 6853.335km
偏心率 0.0001141 0.0001023
轨道倾角 53.156° 53.157°
近地点辐角 82.055° 90.819°
升交点赤经 161.419° 187.255°
平近点角 278.058° 214.773°
近地点 474.429km 474.496km
远地点 475.993km 475.9km
周期 94.105分钟 94.105分钟
每日圈数 15.302014 15.30206
详细信息
固有亮度:
5
最大亮度:
2.5
卫星平台:
Starlink V1.0
覆盖范围:
全球
运营商:
太空探索技术公司
运营商所在国:
美国
制造商(研发单位):
太空探索技术公司
制造商所在国:
美国
使用方式:
暂无
卫星简介
Starlink 计划是 SpaceX 推出的全球卫星互联网项目,通过发射低轨道卫星,为全球尤其是偏远地区提供高速、低延迟的互联网服务。自 2019 年起,Starlink 已部署数千颗卫星,旨在缩小全球数字鸿沟,推动互联网普及。该项目还为军事、航空等行业提供通信支持,带来广泛经济效益。
2D轨道图
3D轨道图
轨道高度分析图
轨道倾角分析图
轨道综合分析图
查看轨道综合分析图